Location: Innsbruck
(47.2657°N, 11.3914°E)
Time: 10:57:27
(UTC+01:00)

XW-2F - Pass Details

Date: 07 December 2021
Orbit: 495 x 515 km, 97.5° (Epoch: 15 January)

Event Time Altitude Azimuth Distance (km) Brightness Sun altitude
Rises 17:52:51 0° 179° (S) 2,603 ? -14.3°
Reaches altitude 10° 17:54:59 10° 185° (S) 1,727 ? -14.7°
Maximum altitude 17:58:35 48° 261° (W) 682 ? -15.2°
Drops below altitude 10° 18:02:15 10° 336° (NNW) 1,752 ? -15.8°
Sets 18:04:25 0° 343° (NNW) 2,646 ? -16.2°
